Content
SEND FEEDBACK

Daily
Averages
Monthly
Summary
United States of America

LAKIN, KANSAS


Home > North America > United States > Kansas
Elevation: 3004 feet     Latitude: 37 56N     Longitude: 101 15W

WEATHER
 
SELECT A DAY
Number of Records: 199,224;   Date Range: 1/1/95 - 12/17/14
 
SHARE

PRINT THIS DATA

[ ← Previous Day ]
WEATHER ALMANAC - JANUARY 3, 2013
[ Next Day → ]
[ °C ]   °F
Weather ElementAverageHighLow
Temperature15.1 °F27 °F (2:54 pm)7 °F (6:54 am)
Dewpoint9.9 °F18 °F (1:54 pm)3.9 °F (1:54 am)
Humidity80.4 %92 % (9:54 pm)63 % (3:54 pm)
Barometer30.47 in30.56 in (10:54 am)30.43 in (1:54 am)
Wind Speed8.2 mph12.7 mph (1:54 am)
Weather ElementAverage
Visibility10 mi
Wind DirectionW (270 °)

Weather ElementTotal
Precipitation---
Heating Degree Days48 (Base 65)
Averaged from 23 records on January 3, 2013
WEATHER CONDITIONS BREAKOUT
WIND DIRECTION BREAKOUT
WEATHER BY HOUR - JANUARY 3, 2013
[ °C ]   °F
Local TimeTemperatureDewpointHumidityBarometerVisibilityWind DirectionWind SpeedGust SpeedPrecipitationEventsConditions
1:54 AM9.0 °F3.9 °F80 %30.43 in10.0 miNW (320°)12.7 mphPartly Cloudy
2:54 AM9.0 °F3.9 °F80 %30.45 in10.0 miWNW (300°)11.5 mphPartly Cloudy
3:54 AM12.0 °F6.1 °F77 %30.45 in10.0 miNW (310°)12.7 mphMostly Cloudy
4:54 AM10.0 °F6.1 °F84 %30.46 in10.0 miNW (320°)11.5 mphClear
5:54 AM10.0 °F6.1 °F84 %30.47 in10.0 miNW (320°)12.7 mphClear
6:54 AM7.0 °F3.9 °F87 %30.51 in10.0 miNW (310°)9.2 mphClear
7:54 AM7.0 °F3.9 °F87 %30.53 in10.0 miNW (310°)10.4 mphClear
8:54 AM8.1 °F5.0 °F87 %30.54 in10.0 miNW (310°)10.4 mphClear
9:54 AM10.9 °F7.0 °F84 %30.55 in10.0 miWNW (290°)4.6 mphClear
10:54 AM17.1 °F10.9 °F77 %30.56 in10.0 miNW (320°)6.9 mphScattered Clouds
11:54 AM21.0 °F14.0 °F74 %30.53 in10.0 miWest (260°)6.9 mphClear
12:54 PM25.0 °F16.0 °F69 %30.49 in10.0 miWest (280°)6.9 mphClear
1:54 PM26.1 °F18.0 °F71 %30.45 in10.0 miWest (260°)4.6 mphClear
2:54 PM27.0 °F17.1 °F66 %30.44 in10.0 miWNW (290°)4.6 mphClear
3:54 PM27.0 °F16.0 °F63 %30.43 in10.0 miWSW (250°)3.5 mphClear
4:54 PM24.1 °F17.1 °F75 %30.45 in10.0 miSSW (210°)6.9 mphClear
5:54 PM19.0 °F12.9 °F77 %30.46 in10.0 miSW (230°)9.2 mphClear
6:54 PM16.0 °F12.0 °F84 %30.46 in10.0 miSSW (200°)8.1 mphClear
7:54 PM16.0 °F12.9 °F88 %30.45 in10.0 miSSW (200°)5.8 mphClear
8:54 PM14.0 °F10.9 °F88 %30.45 in10.0 miSSW (200°)6.9 mphClear
9:54 PM12.0 °F10.0 °F92 %30.43 in10.0 miSW (230°)5.8 mphClear
10:54 PM10.0 °F7.0 °F87 %30.43 in10.0 miWSW (240°)9.2 mphClear
11:54 PM9.0 °F6.1 °F88 %30.43 in10.0 miWSW (250°)8.1 mphClear
Hourly data recorded from KGCK, located miles away from Lakin, Kansas







STORIES FROM OUR PARTNERS